Regional Weather Roundup
Issued by NWS

Home | Current Version | Previous Version | Text Only | Print | Product List | Glossary On
Versions: 1 2 3 4 5 6 7 8 9 10 11 12 13 14 15 16 17 18 19 20 21 22 23 24 25 26 27 28 29 30 31 32 33 34 35 36 37 38 39 40 41 42 43 44 45 46 47 48 49 50
000
ASUS43 KMPX 232310
RWRMN
WEATHER ROUNDUP FOR MINNESOTA
NATIONAL WEATHER SERVICE TWIN CITIES/CHANHASSEN MN
500 PM CST THU NOV 23 2017


NOTE: "FAIR" INDICATES FEW OR NO CLOUDS BELOW 12,000 FEET WITH NO
SIGNIFICANT WEATHER AND/OR OBSTRUCTIONS TO VISIBILITY. N/A MEANS
CURRENT SKY AND/OR WEATHER CONDITIONS ARE NOT AVAILABLE.

MNZ060>063-068>070-240000-
   Twin Cities Metro

CITY           SKY/WX    TMP DP  RH WIND       PRES   REMARKS
TWIN CITIES    PTCLDY    42  26  53 S8        29.78F
ST PAUL        PTCLDY    40  26  57 SE8       29.79F
CRYSTAL        CLEAR     39  23  52 S7        29.76F
BLAINE         PTCLDY    41  25  52 S8        29.76F
LAKEVILLE      CLEAR     37  27  65 S3        29.79F
EDEN PRAIRIE   PTCLDY    41  25  53 S8        29.76F
SOUTH ST PAUL  PTCLDY    43  25  49 S5        29.78F
LAKE ELMO      MOCLDY    41  27  56 SE6       29.79F
$$
MNZ001>005-007-008-013>017-022>024-027-028-240000-
   Northwest Minnesota

CITY           SKY/WX    TMP DP  RH WIND       PRES   REMARKS
BEMIDJI        CLEAR     32  26  80 S3        29.60F
HALLOCK        CLOUDY    30  30 100 SE13      29.48F WCI  20
ROSEAU         CLOUDY    32  27  80 S13       29.52F WCI  22
WARROAD        CLOUDY    30  27  86 S9        29.53F WCI  22
THIEF RVR FALL PTCLDY    30  29  96 SE10      29.54F WCI  21
CROOKSTON      CLEAR     37  30  75 S15       29.54F
FOSSTON        CLEAR     34  28  80 S10       29.57F WCI  26
DETROIT LAKES  CLEAR     37  30  75 S9        29.61F
MOORHEAD       CLEAR     43  28  56 S13       29.59F
PARK RAPIDS    CLEAR     39  30  70 S12       29.62F
MAHNOMEN       FAIR      36  28  72 S10       29.57F
$$
MNZ006-009>011-018-025>026-240000-
   North Central Minnesota

CITY           SKY/WX    TMP DP  RH WIND       PRES   REMARKS
BAUDETTE       CLOUDY    26  23  88 S8        29.56F WCI  18
FLAG ISLAND    CLOUDY    28  23  80 SE14      29.53F WCI  17
INTL FALLS     CLOUDY    30  22  72 SE7       29.59F WCI  23
WASKISH        CLOUDY    30  27  86 S3        29.59F
BIG FORK       CLOUDY    34  25  69 S7        29.61F WCI  28
LONGVILLE      CLEAR     36  27  69 S8        29.64F
GRAND RAPIDS   CLOUDY    34  25  69 S8        29.66F WCI  27
CRANE LAKE     CLOUDY    30  25  80 CALM      29.65F
ORR            CLOUDY    34  21  60 SE7       29.61F WCI  28
COOK           CLOUDY    34  25  69 SE5       29.65F WCI  30
WALKER         FAIR      36  27  68 SE7       29.62F
$$
MNZ012-019>021-037-240000-
   Northeast Minnesota

CITY           SKY/WX    TMP DP  RH WIND       PRES   REMARKS
DULUTH         CLOUDY    34  25  69 S8        29.70F WCI  27
ELY            CLOUDY    30  25  80 SE3       29.67F
HIBBING        CLOUDY    34  24  67 S6        29.66F WCI  29
EVELETH        CLOUDY    33  23  66 S5        29.68F WCI  29
DULUTH HARBOR  CLOUDY    37  28  70 CALM      29.75S
TWO HARBORS    CLOUDY    37  28  70 CALM      29.71F
SILVER BAY     CLOUDY    34  27  75 S6        29.70F WCI  29
GRAND MARAIS     N/A     35  28  75 SW8       29.75F WCI  29
G MARAIS ARPRT CLOUDY    27  19  74 CALM      29.70F
$$
MNZ029>031-032-039>041-046>048-054>057-064-240000-
   West Central Minnesota

CITY           SKY/WX    TMP DP  RH WIND       PRES   REMARKS
FERGUS FALLS   CLOUDY    39  28  65 S12       29.65F
WHEATON        CLEAR     46  34  61 SE8       29.64F
MORRIS         CLEAR     43  28  56 SE13      29.66F
ALEXANDRIA     CLOUDY    41  29  62 S10       29.67F
ELBOW LAKE     FAIR      40  30  65 S14       29.64F
WADENA         CLEAR     37  28  70 S6        29.64F
GLENWOOD       CLOUDY    39  30  70 S10       29.68F
APPLETON       CLEAR     48  32  53 S7        29.67F
BENSON         CLEAR     43  28  56 S9        29.70F
ORTONVILLE     CLEAR     50  36  57 N8        29.66F
MADISON        CLEAR     52  36  54 S7        29.68F
WILLMAR        FAIR      41  30  65 SE8       29.73F
$$
MNZ033>034-036-042>043-049>051-058-059-240000-
   Central Minnesota

CITY           SKY/WX    TMP DP  RH WIND       PRES   REMARKS
ST CLOUD       CLOUDY    40  27  59 SE8       29.73F
SAUK CENTRE    FAIR      38  29  71 SE8       29.69F
PAYNESVILLE    PTCLDY    43  31  63 S9        29.72F
AITKIN         MOCLDY    36  27  69 S7        29.66F
PINE RIVER     CLEAR     36  27  69 S8        29.69F
BRAINERD       CLEAR     38  26  62 S9        29.68F
STAPLES        CLEAR     37  27  65 S9        29.66F
LITTLE FALLS   CLOUDY    37  21  52 S8        29.70F
LITCHFIELD     CLEAR     43  30  61 CALM      29.74F
BUFFALO        CLOUDY    41  26  53 S5        29.76F
MAPLE LAKE     MOCLDY    42  29  59 S7        29.75F
HUTCHINSON     CLOUDY    42  30  62 CALM      29.75F
$$
MNZ037-044-045-052-053-240000-
   East Central Minnesota

CITY           SKY/WX    TMP DP  RH WIND       PRES   REMARKS
PRINCETON      CLOUDY    43  27  52 SE6       29.74F
MORA           PTCLDY    36  25  64 S3        29.75F
CAMBRIDGE      MOCLDY    43  27  52 SE5       29.75F
RUSH CITY      CLOUDY    39  25  56 S6        29.76F
MOOSE LAKE     CLOUDY    36  25  64 S6        29.71F
HINCKLEY       CLOUDY    37  27  65 S6        29.75F
CLOQUET        CLOUDY    36  23  60 S7        29.71F
MCGREGOR       CLOUDY    37  28  70 S9        29.69F
$$
MNZ071>073-080-081-089-090-097-098-240000-
   Southwest Minnesota

CITY           SKY/WX    TMP DP  RH WIND       PRES   REMARKS
MONTEVIDEO     CLEAR     48  34  57 S7        29.70F
GRANITE FALLS  CLEAR     47  33  58 SE8       29.73F
CANBY          CLEAR     55  37  49 W18G24    29.69F
MARSHALL       CLOUDY    53  35  50 SW8       29.73S
REDWOOD FALLS  CLEAR     45  29  53 S10       29.73F
OLIVIA         CLEAR     43  30  61 S8        29.73F
PIPESTONE      CLOUDY    46  34  61 SW7       29.75F
WINDOM         CLOUDY    50  30  46 S8        29.76F
WORTHINGTON    CLOUDY    50  34  54 SW14      29.77F
JACKSON        CLOUDY    46  32  57 CALM      29.78F
SLAYTON        PTCLDY    50  34  55 S9        29.77F
$$
MNZ065>067-074>077-082>085-091>093-240000-
   South Central Minnesota

CITY           SKY/WX    TMP DP  RH WIND       PRES   REMARKS
MANKATO        CLEAR     43  28  55 S8        29.79F
NEW ULM        CLEAR     45  28  53 CALM      29.76F
ST JAMES       CLEAR     46  30  53 SE10      29.78F
FAIRMONT       CLOUDY    43  30  60 S12       29.80F
GLENCOE        PTCLDY    44  29  57 S6        29.75F
FARIBAULT      CLEAR     43  28  56 S6        29.80F
OWATONNA       CLEAR     41  28  60 S6        29.81F
WASECA         CLEAR     39  28  65 S8        29.81F
ALBERT LEA     CLEAR     43  25  49 S7        29.82F
$$
MNZ078>079-086>088-094>096-240000-
   Southeast Minnesota

CITY           SKY/WX    TMP DP  RH WIND       PRES   REMARKS
ROCHESTER      CLEAR     37  26  64 S8        29.83F
RED WING       CLEAR     37  19  48 SE3       29.82F
STANTON        CLEAR     40  26  57 S5        29.79F
DODGE CENTER   CLEAR     37  25  60 S8        29.82F
WINONA         CLEAR     36  27  69 CALM      29.86R
AUSTIN         CLEAR     39  27  60 S6        29.83F
PRESTON        CLEAR     40  24  54 SW6       29.85F
$$
ABBREVIATIONS USED IN REMARKS
   TC - TEMPERATURES IN CELSIUS
  WCI - WIND CHILL INDEX
   HX - HEAT INDEX
  VSB - VISIBILITY
$$



USA.gov is the U.S. government's official web portal to all federal, state and local government web resources and services.